Location: Ahausen
(50.4985°N, 8.2722°E)
Time: 06:53:31
(UTC+00:00)

Cosmos 1634 Rocket - Pass Details

Date: 18 September 2020
Orbit: 961 x 991 km, 82.9° (Epoch: 21 October)

Event Time Altitude Azimuth Distance (km) Brightness Sun altitude
Exits shadow 19:34:25 29° 144° (SE) 1,678 4.7 -19.3°
Maximum altitude 19:37:07 47° 90° (E) 1,263 4.2 -19.7°
Drops below altitude 10° 19:43:00 10° 19° (NNE) 2,717 6.4 -20.5°
Sets 19:45:36 0° 14° (NNE) 3,672 7.2 -20.9°
